Arlanda current weather conditions

sailwx.info

Wind from 020 at 7 knots

Air temperature -4.0° C
Visibility: greater than 1.1 NM
Dewpoint -6.0° C
Present weather: Snow.

Last reported at 2018-Feb-23 13:50 UTC.
Time now 2018-Feb-23 14:46 UTC

Location: N 59°39' E 017°56'.
View on Google Maps.

See reports from other nearby stations

  
Tides and Currents Weather Stations Pressure Air Temp Water Temp Dewpoint Dewpoint Depression Visibility Wind Speed Wind Dir Waves Ship Positions
date/time (UTC)wind fromknots sea level pressurealtimeterstation pressurevisibilityair tempwater tempwave heightnotes
2018-Feb-23 13:50 020 7 1.1-4.0 Snow.
2018-Feb-23 13:20 360 7 3.8-3.0 Light snow.
2018-Feb-23 12:50 350 9 2.4-4.0 Light snow showers.
2018-Feb-23 12:20 010 11 5.4-3.0
2018-Feb-23 11:50 010 13 5.4-4.0
2018-Feb-23 11:20 360 13 5.4-3.0
2018-Feb-23 10:50 010 13 5.4-3.0
2018-Feb-23 10:20 020 13 5.4-3.0
2018-Feb-23 09:50 010 12 5.4-3.0 Light snow.
2018-Feb-23 09:20 360 8 4.3-4.0 Light snow.
2018-Feb-23 08:50 350 6 5.4-4.0
2018-Feb-23 08:20 350 6 5.4-4.0
2018-Feb-23 07:50 350 5 5.4-5.0
2018-Feb-23 07:20 340 6 5.4-5.0
2018-Feb-23 06:50 340 4 5.4-5.0 Light drizzle snow.
2018-Feb-23 06:20 010 4 5.4-6.0
2018-Feb-23 05:50 010 4 5.4-6.0
2018-Feb-23 05:20 020 2 5.4-5.0
2018-Feb-23 04:50 350 2 5.4-5.0
2018-Feb-23 04:20 320 2 5.4-5.0
2018-Feb-23 03:50 070 1 5.4-5.0
2018-Feb-23 03:20 360 1 5.4-5.0
2018-Feb-23 02:50 5.4-5.0
2018-Feb-23 02:20 090 1 5.4-5.0
2018-Feb-23 01:50 060 2 5.4-5.0
2018-Feb-23 01:20 080 2 5.4-5.0
2018-Feb-23 00:50 070 1 5.4-5.0
2018-Feb-23 00:20 070 1 5.4-5.0
2018-Feb-22 23:50 080 2 5.4-6.0
2018-Feb-22 23:20 120 2 5.4-6.0
2018-Feb-22 22:50 080 5 5.4-5.0
2018-Feb-22 22:20 070 2 5.4-5.0
2018-Feb-22 21:50 160 1 5.4-5.0
2018-Feb-22 21:20 180 1 5.4-5.0
2018-Feb-22 20:50 170 2 5.4-5.0 Light snow.
2018-Feb-22 20:20 170 1 5.4-6.0 Light snow.
2018-Feb-22 19:50 170 2 5.4-6.0
2018-Feb-22 19:20 180 1 5.4-6.0
2018-Feb-22 18:50 200 1 5.4-7.0
2018-Feb-22 18:20 250 2 5.4-6.0
2018-Feb-22 17:50 240 2 5.4-6.0
2018-Feb-22 17:20 260 4 5.4-6.0
2018-Feb-22 16:50 240 4 5.4-6.0
2018-Feb-22 16:20 270 4 5.4-5.0
2018-Feb-22 15:50 260 4 5.4-4.0
2018-Feb-22 15:20 250 5 5.4-4.0
2018-Feb-22 14:50 270 6 5.4-4.0
2018-Feb-22 14:20 240 6 5.4-3.0
2018-Feb-22 13:50 270 5 5.4-3.0
2018-Feb-22 13:20 250 5 5.4-3.0
2018-Feb-22 12:50 240 5 5.4-3.0
2018-Feb-22 12:20 240 5 5.4-3.0
2018-Feb-22 11:50 230 4 5.4-3.0
2018-Feb-22 11:20 5.4-0.0
2018-Feb-22 10:50 5.4-2.0
2018-Feb-22 10:20 250 1 5.4-4.0
2018-Feb-22 09:50 310 1 5.4-5.0
2018-Feb-22 09:20 3.8-6.0 Light snow.
2018-Feb-22 08:50 080 1 2.7-6.0 Light snow.
2018-Feb-22 08:20 090 2 2.7-6.0 Light snow.
2018-Feb-22 07:50 080 2 4.3-7.0 Light snow.
2018-Feb-22 07:20 080 2 3.8-7.0 Light snow.
2018-Feb-22 06:50 090 2 3.8-7.0 Light snow.
2018-Feb-22 06:20 350 2 3.2-8.0 Light snow.
2018-Feb-22 05:50 060 1 5.4-8.0 Light snow.
2018-Feb-22 05:20 080 1 5.4-8.0 Light snow.
2018-Feb-22 04:50 350 1 5.4-8.0 Light snow.
2018-Feb-22 04:20 090 2 5.4-8.0
2018-Feb-22 03:50 060 1 5.4-9.0
2018-Feb-22 03:20 070 2 5.4-9.0 Light snow.
2018-Feb-22 02:50 5.4-9.0
2018-Feb-22 02:20 070 2 5.4-9.0 Light snow.
2018-Feb-22 01:50 080 0 5.4-10.0
2018-Feb-22 01:20 090 0 5.4-10.0
2018-Feb-22 00:50 5.4-10.0
2018-Feb-22 00:20 060 1 5.4-11.0
2018-Feb-21 23:50 080 2 5.4-11.0
2018-Feb-21 23:20 060 1 5.4-11.0
2018-Feb-21 22:50 090 2 5.4-11.0
2018-Feb-21 22:20 010 2 5.4-10.0
2018-Feb-21 21:50 090 1 5.4-10.0
2018-Feb-21 21:20 5.4-9.0
2018-Feb-21 20:50 010 2 5.4-9.0
2018-Feb-21 20:20 350 2 5.4-8.0 Light snow.
2018-Feb-21 19:50 4.3-8.0 Light snow.
2018-Feb-21 19:20 5.4-8.0
2018-Feb-21 18:50 020 1 5.4-8.0
2018-Feb-21 18:20 350 1 5.4-8.0
2018-Feb-21 17:50 360 2 5.4-6.0
2018-Feb-21 17:20 350 2 5.4-8.0
2018-Feb-21 16:50 350 1 5.4-8.0
2018-Feb-21 16:20 360 2 5.4-7.0
2018-Feb-21 15:50 5.4-6.0
2018-Feb-21 15:20 360 2 5.4-4.0
2018-Feb-21 14:50 010 5 5.4-4.0
2018-Feb-21 14:20 030 5 5.4-4.0